Flag for Chile Weather past 2 weeks in Iquique, Chile

Now
73 °F

Clear.


Feels Like: 76 °F
Forecast: 74 / 83 °F
Wind: No wind

Location: Iquique / Diego Arac

Current Time: Mar 27, 2015 at 4:54:24 AM

Latest Report: Mar 27, 2015 at 4:00 AM


Visibility: 10 mi

Pressure: 29.92 "Hg

Humidity: 61%

Dew point: 59 °F

Location of IquiqueLocation

Historic Weather in Iquique — Graph

°F

Iquique temperature yesterday

Maximum temperature yesterday: 82 °F (at 3:00 PM)
Minimum temperature yesterday: 70 °F (at 2:00 AM)
Average temperature yesterday: 76 °F

Past Weeks' High & Low Weather Summary

 TemperatureHumidityPressure
High82 °F (Mar 16, 4:00 PM)94% (Mar 25, 10:00 PM)30.04 "Hg (Mar 25, 10:00 PM)
Low68 °F (Mar 12, 3:00 AM)38% (Mar 18, 4:00 PM)29.74 "Hg (Mar 12, 5:00 PM)
Average75 °F64%29.91 "Hg
* Reported Mar 12 3:00 AM — Mar 27 3:00 AM, Iquique, Weather by CustomWeather, © 2015

Note: Actual official high and low records may vary slightly from our data, if they occured in-between our weather recording intervals... More about our weather records

Advertising

Iquique weather history for previous 24 hours

 ConditionsComfort  
Time TempWeatherWind HumidityBarometerVisibility
3:00 AM
Fri, Mar 27
72 °FClear.3 mph65%29.95 "Hg10 mi
2:00 AM73 °FClear.5 mph61%29.98 "Hg10 mi
1:00 AM73 °FClear.14 mph53%29.98 "Hg10 mi
12:00 AM73 °FClear.15 mph57%30.01 "Hg10 mi
11:00 PM
Thu, Mar 26
75 °FPassing clouds.15 mph54%29.98 "HgN/A
10:00 PM75 °FPassing clouds.16 mph61%29.98 "HgN/A
9:00 PM75 °FPassing clouds.16 mph65%29.95 "HgN/A
8:00 PM75 °FPassing clouds.15 mph65%29.92 "HgN/A
7:00 PM77 °FPassing clouds.20 mph61%29.92 "HgN/A
6:00 PM79 °FScattered clouds.18 mph54%29.89 "HgN/A
5:00 PM79 °FPassing clouds.18 mph58%29.92 "HgN/A
4:00 PM81 °FPassing clouds.20 mph51%29.92 "HgN/A
3:00 PM82 °FPassing clouds.22 mph48%29.92 "HgN/A
2:00 PM81 °FPassing clouds.17 mph58%29.95 "HgN/A
1:00 PM79 °FPassing clouds.20 mph61%29.95 "HgN/A
12:00 PM79 °FPassing clouds.18 mph65%29.98 "HgN/A
11:00 AM75 °FScattered clouds.17 mph78%29.98 "HgN/A
10:00 AM77 °FPassing clouds.12 mph74%29.95 "HgN/A
9:00 AM73 °FPartly sunny.10 mph83%29.95 "HgN/A
8:00 AM72 °FPartly sunny.2 mph83%29.95 "HgN/A
7:00 AM72 °FPartly sunny.3 mph88%29.92 "HgN/A
6:00 AM72 °FPassing clouds.7 mph83%N/AN/A
5:00 AM75 °FOvercast.5 mph78%29.92 "HgN/A
4:00 AM75 °FOvercast.8 mph78%29.95 "HgN/A
Weather by CustomWeather, © 2015

See weather overviewHow to use our weather pages